Temperature
24 25 26 26 27 27 27 27 27 28 28 28 28 28 28 27 26 26 25 24 24 23 22 21 21 20 20 19 19 19 18 18 18 18 18 17 17 17 17 17 17 17 17 16
24 25 26 27 27 26 26 26 27 27 27 27 27 27 28 27 27 26 25 24 24 23 22 21 20 20 20 19 19 19 19 18 18 18 18 17 17 17 17 17 17 17 17 16
25 26 26 25 25 25 26 26 27 27 27 27 26 27 27 27 26 25 25 24 24 23 22 21 20 20 19 19 19 19 19 19 18 18 17 17 17 17 17 17 17 17 17 16
25 26 25 25 25 25 26 27 27 26 26 27 27 27 27 27 26 26 25 24 24 23 22 21 20 19 19 19 19 19 19 18 18 18 17 17 17 17 17 17 17 16 16 16
25 25 25 25 26 26 26 27 26 26 26 26 27 26 28 27 26 26 25 24 23 23 22 21 20 20 19 19 18 18 18 18 18 18 17 17 17 17 17 16 16 16 16 16
25 26 25 26 26 26 26 26 26 26 27 25 26 26 27 27 27 26 26 24 23 22 21 21 20 19 19 18 18 18 18 18 18 18 17 17 17 17 17 16 16 16 16 16
24 25 25 25 25 25 25 25 25 25 25 26 26 26 26 26 26 26 25 24 23 22 21 21 20 19 19 18 18 18 17 18 18 17 17 17 17 17 17 16 16 16 16 16
24 24 25 25 25 25 25 26 25 25 25 26 26 26 26 26 25 24 24 23 22 22 21 20 20 19 18 18 17 17 17 17 17 17 17 17 16 16 16 16 16 16 16 16
24 24 25 25 25 26 25 26 26 26 26 25 26 26 26 25 25 24 24 23 22 21 21 20 19 19 18 17 17 17 16 16 16 17 16 16 16 16 16 16 16 16 16 15
24 24 25 25 25 25 26 26 25 25 24 24 25 25 26 25 24 24 23 22 21 20 20 19 19 18 18 17 17 16 16 16 16 16 16 16 16 16 16 15 15 15 15 15
24 23 24 24 24 25 24 24 25 25 25 24 24 25 25 24 24 23 23 21 21 20 19 19 18 18 17 17 16 16 16 16 16 16 16 15 15 15 15 15 15 15 15 15
23 23 23 24 25 25 25 24 24 24 24 24 24 25 24 23 23 22 22 20 19 19 19 18 17 17 17 16 16 16 16 16 16 15 15 15 15 15 15 15 15 15 15 15
22 22 22 23 23 23 24 24 24 24 24 24 24 24 23 23 22 21 20 19 19 18 18 18 17 17 16 16 16 16 16 16 15 15 15 15 15 15 15 15 15 15 15 15
21 22 22 22 23 23 23 23 23 23 24 23 24 24 23 22 22 21 20 19 18 18 17 17 17 16 16 16 16 16 15 15 15 15 15 15 15 15 15 15 15 15 15 14
21 21 22 23 23 23 23 23 23 23 23 23 24 24 23 22 21 20 19 18 18 17 17 17 16 16 16 15 15 15 15 15 15 15 15 14 14 15 14 14 14 14 14 14
20 21 21 21 22 22 22 22 23 23 23 23 23 23 23 21 20 19 18 18 17 17 17 16 16 15 15 15 15 14 14 14 15 15 15 14 14 14 14 14 14 14 13 14
20 20 20 21 22 21 21 21 22 22 22 22 22 22 21 20 20 19 18 17 17 16 16 15 15 15 15 14 14 14 14 14 14 14 14 14 14 13 13 13 13 13 13 13
19 19 20 21 20 19 21 21 21 21 21 22 21 21 20 19 18 17 16 16 16 16 15 15 15 14 14 14 14 14 14 14 14 14 14 13 13 13 13 13 13 13 13 13
19 19 20 20 20 20 20 20 20 20 20 20 20 20 19 18 18 17 16 15 15 15 14 14 14 14 14 14 13 13 13 13 13 13 13 13 13 13 13 13 13 12 12 12
18 18 19 19 19 19 20 19 19 19 19 19 19 18 18 18 19 18 15 14 14 14 14 13 13 13 13 13 13 13 13 13 13 13 13 13 13 13 12 12 12 12 12 12
18 18 18 18 18 19 18 18 18 18 19 17 17 17 16 17 17 15 14 14 13 13 13 13 13 13 13 12 12 12 12 12 12 12 12 12 12 12 12 12 12 12 12 12
17 18 17 18 17 18 17 17 18 17 16 16 16 15 15 14 14 13 13 13 12 12 12 12 12 12 12 12 12 12 12 12 12 12 12 12 12 12 12 12 11 11 11 11
17 17 18 17 17 16 15 15 15 15 15 15 15 14 14 13 13 13 13 12 12 12 12 12 12 12 11 11 11 11 11 11 11 11 11 11 11 11 11 11 11 11 11 11
16 15 16 16 16 15 15 14 14 14 14 14 14 13 13 13 13 12 12 12 12 12 12 11 11 11 11 11 11 11 11 11 11 11 11 11 11 11 11 11 11 11 11 11
15 15 15 15 15 15 14 14 14 13 13 13 13 13 13 13 12 12 12 12 11 11 11 11 11 11 11 10 10 10 10 10 11 11 10 11 11 11 11 11 11 11 11 11
14 14 14 15 15 15 14 13 13 13 12 12 12 12 12 12 12 12 12 11 11 11 11 11 11 11 10 10 10 10 10 10 10 10 10 10 11 11 11 11 10 10 10 10
Wind_Speed
10 12 13 13 14 10 8 10 10 8 5 8 11 11 9 7 7 7 8 9 9 9 8 8 8 9 9 9 10 10 9 8 7 6 6 5 5 5 4 4 5 6 5 6
10 14 12 9 10 10 10 11 11 7 5 7 9 11 9 8 9 8 8 9 9 9 8 8 8 8 10 10 10 10 9 9 9 7 6 5 5 4 4 3 4 5 5 5
13 5 7 10 12 12 12 12 10 8 6 8 8 12 11 9 8 7 7 8 8 8 9 8 9 9 9 10 10 9 9 9 9 8 6 5 5 4 5 5 4 5 5 5
10 6 9 12 13 13 12 10 9 9 10 9 9 10 10 8 8 7 8 8 8 8 8 8 8 9 9 9 9 9 9 9 9 9 8 8 7 6 6 5 4 4 5 5
9 8 10 13 12 12 9 6 9 10 11 11 10 11 8 8 8 7 7 7 7 7 7 8 8 8 8 8 8 9 9 9 9 9 9 9 7 6 5 5 5 4 4 5
8 7 8 9 9 10 7 7 9 10 11 14 12 11 8 7 7 6 6 6 6 6 6 6 6 7 7 7 8 8 9 9 9 9 8 8 8 7 6 6 6 5 4 5
10 10 9 8 9 10 11 10 9 10 11 11 7 9 6 2 4 5 5 5 5 6 6 7 7 7 7 7 7 7 8 8 9 9 8 8 8 8 8 7 6 6 5 5
9 9 10 9 11 9 13 13 10 9 10 7 8 9 4 2 2 2 3 3 4 5 6 6 7 7 7 7 7 7 8 8 9 9 8 8 8 7 7 7 6 6 5 5
7 6 7 7 8 9 11 13 11 10 10 10 8 6 5 4 4 3 3 2 2 4 5 6 6 6 6 6 6 7 7 7 8 8 8 8 8 7 7 6 6 5 4 4
5 6 7 7 8 9 9 9 8 10 10 11 10 10 6 6 4 3 2 2 2 3 4 5 5 5 5 5 5 5 6 6 6 7 7 7 7 7 7 6 5 5 4 4
6 7 7 8 9 10 9 10 10 10 10 10 9 5 1 3 3 3 2 1 2 3 4 5 5 5 5 5 5 5 6 6 6 6 6 6 6 7 7 6 5 5 5 5
7 6 8 9 7 6 9 10 11 10 10 10 10 4 4 2 1 2 2 2 3 4 4 5 5 5 5 5 4 4 5 5 5 6 6 6 6 6 6 6 6 5 5 5
6 6 8 9 9 9 11 11 11 10 9 10 11 5 5 2 1 1 2 2 3 4 4 4 4 4 4 4 4 4 4 4 5 6 6 5 6 6 5 6 6 5 5 4
5 8 10 10 5 6 10 11 11 12 11 12 13 9 4 3 2 2 2 2 2 3 3 3 4 4 4 4 4 4 4 4 4 4 5 5 5 5 5 5 5 5 5 5
5 10 11 10 8 8 11 12 13 14 14 13 11 10 6 3 4 3 3 3 2 2 2 3 3 3 3 3 3 3 3 3 3 4 4 4 4 4 5 5 5 5 5 5
5 7 9 10 9 9 11 12 13 14 13 14 12 10 4 2 3 3 3 3 3 3 3 3 3 3 3 3 3 3 3 2 3 3 3 2 2 3 4 4 4 5 5 4
6 6 8 10 9 9 11 11 12 12 12 12 12 8 4 3 4 4 4 4 4 4 3 3 3 3 3 3 3 3 3 2 2 2 2 2 3 3 4 4 4 4 4 4
7 8 7 8 8 12 5 2 6 8 8 8 7 5 4 3 3 2 3 3 3 3 3 3 3 3 3 3 3 3 3 2 2 2 2 2 3 3 3 4 4 3 3 4
7 7 6 7 10 8 5 3 4 6 7 5 5 4 3 3 4 3 1 2 2 2 2 2 3 3 3 3 3 4 3 2 2 2 3 3 3 3 3 3 3 3 3 4
6 7 8 8 9 8 2 2 2 5 7 3 2 3 3 5 6 3 1 1 1 1 1 2 2 3 3 3 4 4 3 2 2 2 3 3 3 3 4 3 3 3 3 4
7 7 10 10 9 5 1 1 3 6 1 2 0 1 3 4 3 0 1 1 1 1 1 2 3 3 3 3 3 3 3 2 2 2 2 2 3 3 4 3 3 3 3 3
6 6 7 8 9 5 1 1 3 3 4 2 1 1 1 1 0 1 1 2 2 2 2 2 2 2 2 3 3 3 3 3 2 2 2 2 2 3 3 3 3 3 3 3
4 4 3 4 3 2 1 2 3 4 4 3 2 1 2 2 2 1 1 2 2 2 2 2 2 2 2 3 3 3 3 3 3 3 2 2 2 2 3 3 3 3 3 3
3 3 4 3 3 2 3 4 4 4 4 3 2 2 2 2 1 1 1 1 1 2 2 2 3 3 3 3 3 3 2 2 3 3 2 3 3 3 2 2 3 3 3 3
4 3 4 5 5 4 3 4 4 3 3 2 1 1 1 1 1 1 1 1 1 2 2 2 3 3 3 3 3 3 2 3 3 3 3 3 3 2 2 2 2 2 2 2
5 5 6 5 3 3 4 4 3 2 2 2 2 1 1 1 1 1 1 1 2 2 2 2 3 3 3 3 3 2 3 3 3 3 3 3 3 2 2 3 2 2 1 3
Wind_Direction
194 212 215 213 221 244 244 236 230 227 219 234 237 242 239 218 214 212 209 203 201 200 195 190 189 189 183 180 183 183 182 176 176 178 185 187 188 187 185 183 179 179 180 176
199 221 225 224 221 229 231 233 232 221 214 246 243 246 238 224 222 223 221 212 208 204 196 193 193 191 187 183 185 184 185 183 186 183 188 192 186 186 182 187 180 184 180 180
217 211 200 211 211 219 228 235 236 234 228 230 243 243 225 219 221 220 223 218 212 207 205 199 196 195 188 187 188 186 186 185 189 183 180 175 171 182 185 189 187 192 190 191
228 216 205 212 216 221 227 230 244 242 239 234 226 251 220 212 217 223 222 217 209 205 204 201 196 193 191 189 187 184 183 185 186 186 189 187 189 192 193 192 187 190 195 194
214 204 208 218 221 223 240 240 241 243 245 254 234 251 231 203 223 225 218 211 205 205 203 197 192 187 188 187 184 183 181 183 185 191 192 195 198 194 187 185 179 192 189 192
230 211 223 231 226 224 233 229 232 237 241 243 237 243 244 214 225 225 213 205 203 204 198 190 182 177 180 184 183 181 182 183 185 190 193 196 197 194 188 185 184 195 194 192
214 212 215 224 216 207 216 223 224 224 225 237 212 235 243 231 239 236 228 212 205 203 194 183 178 176 178 182 182 182 182 184 185 189 194 196 197 195 196 196 194 198 198 195
213 209 200 207 220 217 215 227 238 245 243 236 205 234 222 203 232 245 231 204 198 198 193 186 176 173 173 177 179 178 179 184 187 190 194 198 200 201 202 203 203 200 206 202
218 212 173 195 215 227 217 227 246 260 260 256 234 233 217 217 224 226 211 187 182 183 184 182 173 170 170 171 173 177 176 179 186 192 193 197 199 206 204 197 203 205 210 205
243 231 203 195 207 218 236 231 231 241 248 249 240 234 231 204 216 220 215 202 169 159 156 157 161 161 159 162 166 171 172 176 181 189 193 193 194 200 201 198 198 204 207 206
238 231 208 200 216 215 209 217 229 240 249 257 256 239 124 188 204 204 189 144 134 141 142 143 143 148 147 151 155 163 169 173 180 184 186 188 188 194 196 197 200 200 203 200
221 239 231 221 220 232 229 227 226 235 240 250 263 256 93 123 147 174 159 120 103 111 126 132 136 146 151 153 154 161 171 176 179 181 180 182 189 192 193 197 200 199 199 202
206 226 228 218 207 209 221 224 228 237 246 247 251 242 124 124 139 173 151 127 115 117 124 129 135 142 147 155 159 161 169 176 178 176 176 180 191 194 194 200 198 196 197 206
224 232 242 248 252 218 221 221 223 233 240 245 249 254 219 220 231 213 185 169 144 139 138 137 139 147 149 151 156 163 161 160 166 170 175 179 189 194 197 199 197 197 199 205
226 236 243 257 268 247 238 233 228 233 246 255 260 259 245 236 250 242 213 194 179 180 171 158 152 149 151 150 151 148 154 158 165 170 175 183 186 187 190 196 202 203 206 208
223 244 242 245 244 243 243 241 238 239 244 251 258 259 251 228 239 235 215 207 207 209 201 185 173 166 160 157 158 155 153 161 169 172 182 184 194 197 195 201 205 207 212 216
216 229 239 244 240 243 239 238 237 238 241 246 249 253 213 217 228 227 217 221 225 224 215 205 193 185 181 175 167 167 166 167 180 185 194 201 207 211 207 209 211 216 219 219
228 233 240 246 239 238 230 232 247 244 242 247 253 248 220 226 238 238 227 231 228 222 216 215 203 194 192 184 169 161 156 164 180 188 201 213 214 223 212 208 212 219 221 223
227 229 238 238 239 241 221 221 235 240 244 242 239 228 218 211 231 218 210 229 231 238 231 229 212 198 188 185 175 163 163 176 195 207 215 218 213 224 214 218 220 224 221 223
211 227 236 237 241 241 206 103 299 249 232 186 208 211 218 220 242 222 144 230 247 234 222 223 206 189 184 186 181 174 175 188 214 226 222 219 214 222 222 220 228 229 226 227
200 217 231 238 241 242 39 348 224 230 245 75 193 218 228 242 278 24 200 234 222 209 204 204 198 194 192 191 190 190 197 216 232 234 229 216 215 226 227 220 224 227 228 225
223 227 225 235 239 237 64 195 244 330 354 333 286 258 258 291 140 184 212 219 216 207 204 207 201 196 192 194 202 209 224 236 232 226 223 224 227 233 217 210 218 220 224 220
235 265 260 241 253 30 6 320 333 329 310 303 275 259 249 232 213 215 218 212 209 206 208 214 204 194 200 208 215 223 233 235 230 228 224 228 239 235 216 215 217 214 218 229
219 253 246 244 254 287 314 308 305 307 307 306 288 263 228 216 206 210 225 216 210 215 223 216 204 201 215 225 231 233 228 227 224 224 228 234 233 217 202 224 223 226 222 227
272 232 238 246 263 276 287 310 309 311 321 317 307 272 251 212 213 218 234 247 252 240 232 223 214 212 214 218 229 232 223 218 221 223 225 233 227 211 204 214 227 224 219 233
249 244 247 258 270 275 295 319 318 301 315 316 298 295 261 215 226 230 244 262 254 238 228 223 221 213 207 207 215 223 218 214 217 226 227 225 221 208 215 208 200 147 181 151
Height
1487 1485 1481 1478 1478 1476 1476 1478 1479 1478 1478 1481 1480 1479 1479 1482 1484 1486 1488 1490 1492 1494 1497 1499 1501 1503 1504 1506 1508 1510 1512 1513 1515 1516 1518 1519 1521 1522 1524 1525 1525 1526 1528 1529
1484 1481 1476 1476 1477 1480 1480 1481 1479 1478 1479 1481 1479 1478 1476 1479 1481 1483 1485 1487 1489 1492 1494 1496 1498 1500 1501 1503 1505 1507 1509 1511 1513 1515 1516 1518 1519 1521 1522 1523 1524 1525 1526 1527
1476 1473 1476 1478 1480 1482 1480 1479 1476 1477 1478 1478 1480 1478 1474 1475 1478 1481 1483 1484 1487 1489 1491 1493 1495 1497 1499 1500 1502 1504 1506 1508 1511 1513 1515 1516 1518 1519 1521 1521 1522 1523 1524 1525
1474 1473 1477 1478 1478 1478 1479 1474 1475 1477 1480 1476 1478 1481 1471 1470 1474 1477 1479 1481 1483 1486 1488 1490 1492 1494 1496 1498 1500 1501 1503 1506 1508 1510 1512 1514 1515 1517 1518 1519 1521 1522 1523 1523
1472 1472 1475 1476 1474 1474 1473 1472 1474 1475 1476 1477 1474 1479 1467 1467 1472 1473 1475 1478 1480 1483 1485 1487 1489 1491 1494 1496 1498 1499 1501 1503 1505 1508 1510 1511 1513 1515 1516 1518 1519 1520 1521 1521
1468 1470 1472 1470 1470 1472 1472 1474 1474 1473 1472 1483 1473 1476 1471 1463 1466 1468 1472 1476 1478 1481 1483 1485 1487 1489 1491 1494 1496 1497 1498 1500 1502 1505 1507 1508 1510 1512 1514 1515 1516 1518 1519 1519
1469 1468 1469 1470 1471 1472 1473 1477 1481 1481 1479 1475 1466 1472 1468 1462 1465 1467 1470 1474 1477 1479 1481 1483 1485 1487 1489 1491 1493 1495 1496 1498 1500 1502 1504 1506 1507 1509 1511 1512 1514 1515 1517 1517
1469 1469 1464 1466 1467 1468 1468 1469 1477 1482 1477 1467 1467 1469 1463 1463 1467 1469 1471 1473 1476 1477 1479 1481 1483 1485 1487 1489 1491 1492 1494 1495 1497 1499 1501 1503 1505 1507 1509 1510 1512 1513 1514 1515
1463 1465 1461 1464 1464 1464 1466 1465 1460 1467 1467 1470 1464 1462 1462 1463 1466 1469 1470 1472 1474 1476 1478 1480 1482 1484 1486 1487 1489 1491 1492 1493 1495 1497 1499 1501 1502 1504 1506 1507 1509 1511 1512 1513
1460 1466 1461 1462 1463 1463 1461 1461 1465 1469 1478 1477 1468 1465 1462 1463 1465 1467 1469 1471 1473 1475 1476 1478 1480 1482 1484 1486 1487 1489 1490 1492 1493 1495 1497 1498 1499 1501 1503 1505 1506 1508 1509 1510
1461 1466 1463 1462 1463 1461 1463 1465 1464 1463 1463 1471 1473 1465 1455 1461 1464 1466 1468 1471 1472 1474 1476 1478 1479 1481 1483 1485 1486 1487 1489 1490 1491 1493 1494 1496 1497 1499 1500 1502 1503 1505 1506 1507
1463 1463 1463 1460 1457 1457 1459 1460 1463 1470 1469 1466 1466 1466 1459 1462 1465 1467 1469 1472 1473 1475 1476 1477 1479 1481 1482 1484 1485 1486 1487 1489 1490 1491 1492 1493 1495 1497 1498 1499 1501 1502 1503 1504
1463 1466 1469 1465 1463 1461 1460 1459 1459 1462 1465 1465 1468 1466 1461 1463 1466 1468 1470 1472 1474 1475 1476 1477 1479 1480 1481 1483 1484 1485 1486 1487 1488 1490 1491 1492 1493 1494 1495 1497 1498 1500 1501 1502
1465 1463 1464 1464 1457 1456 1459 1459 1459 1461 1462 1462 1461 1459 1460 1462 1465 1468 1471 1472 1473 1475 1476 1477 1478 1479 1480 1481 1483 1484 1485 1486 1487 1488 1489 1490 1491 1492 1493 1495 1496 1497 1498 1499
1463 1462 1458 1455 1453 1454 1456 1456 1457 1459 1457 1459 1455 1455 1457 1462 1465 1468 1470 1472 1473 1474 1475 1476 1477 1478 1479 1480 1482 1483 1484 1485 1486 1487 1488 1489 1489 1490 1491 1492 1494 1495 1496 1497
1463 1461 1459 1459 1455 1454 1456 1455 1455 1456 1455 1456 1455 1456 1457 1463 1466 1468 1470 1471 1472 1473 1474 1475 1476 1477 1478 1479 1480 1481 1482 1483 1484 1485 1486 1487 1488 1489 1489 1490 1491 1492 1493 1494
1460 1462 1462 1459 1454 1456 1460 1455 1454 1454 1454 1455 1456 1457 1459 1462 1465 1467 1469 1470 1471 1472 1473 1474 1475 1475 1476 1478 1479 1480 1481 1482 1483 1484 1485 1485 1486 1487 1488 1488 1489 1489 1490 1491
1461 1461 1458 1456 1459 1466 1455 1451 1452 1453 1453 1454 1455 1456 1460 1463 1466 1467 1469 1469 1470 1470 1471 1472 1473 1474 1475 1476 1477 1478 1479 1480 1481 1482 1483 1483 1484 1485 1485 1486 1486 1487 1487 1488
1459 1460 1458 1457 1457 1454 1454 1453 1454 1455 1455 1455 1456 1458 1461 1464 1465 1466 1468 1468 1469 1469 1470 1471 1472 1473 1473 1475 1475 1476 1477 1478 1479 1480 1480 1481 1481 1482 1482 1483 1483 1484 1484 1484
1459 1458 1457 1456 1460 1460 1454 1454 1456 1457 1457 1456 1458 1459 1461 1462 1460 1462 1466 1467 1468 1468 1468 1469 1470 1471 1472 1473 1474 1474 1475 1476 1476 1477 1477 1478 1478 1479 1479 1480 1480 1481 1481 1481
1458 1459 1458 1457 1458 1454 1455 1457 1458 1461 1457 1459 1460 1461 1462 1461 1461 1464 1465 1466 1466 1466 1467 1468 1469 1469 1470 1471 1471 1472 1473 1473 1474 1475 1475 1475 1476 1476 1477 1477 1477 1478 1478 1478
1456 1455 1457 1457 1459 1460 1458 1458 1459 1460 1461 1461 1461 1462 1463 1463 1463 1463 1464 1464 1465 1465 1466 1466 1467 1467 1468 1469 1470 1470 1471 1472 1472 1472 1472 1473 1474 1474 1474 1474 1474 1475 1475 1475
1457 1456 1453 1456 1459 1461 1461 1461 1462 1462 1462 1461 1461 1462 1463 1463 1462 1463 1463 1463 1464 1464 1464 1465 1465 1465 1466 1467 1468 1468 1469 1469 1470 1470 1470 1470 1471 1471 1471 1471 1472 1472 1472 1473
1457 1460 1458 1459 1458 1460 1461 1461 1462 1462 1462 1461 1461 1461 1461 1461 1461 1462 1462 1462 1462 1462 1462 1463 1463 1463 1464 1464 1465 1466 1466 1467 1467 1467 1468 1468 1469 1469 1469 1469 1469 1469 1469 1469
1458 1459 1458 1459 1459 1460 1460 1461 1461 1461 1461 1460 1460 1460 1460 1460 1460 1460 1460 1460 1460 1460 1460 1461 1461 1461 1462 1463 1463 1464 1464 1464 1465 1465 1466 1466 1467 1467 1467 1467 1467 1467 1467 1467
1459 1460 1459 1457 1458 1459 1460 1460 1460 1460 1460 1460 1460 1459 1460 1460 1459 1459 1458 1458 1458 1458 1458 1458 1459 1459 1460 1461 1461 1462 1462 1463 1463 1463 1464 1464 1465 1465 1465 1465 1465 1464 1464 1464